Regional Weather Roundup
Issued by NWS

Home | Current Version | Previous Version | Text Only | Print | Product List | Glossary Off
Versions: 1 2 3 4 5 6 7 8 9 10 11 12 13 14 15 16 17 18 19 20 21 22 23 24 25 26 27 28 29 30 31 32 33 34 35 36 37 38 39 40 41 42 43 44 45 46 47 48 49 50

000
ASUS43 KMPX 271310
RWRMN
WEATHER ROUNDUP FOR MINNESOTA
NATIONAL WEATHER SERVICE TWIN CITIES/CHANHASSEN MN
800 AM CDT WED AUG 27 2014


NOTE: "FAIR" INDICATES FEW OR NO CLOUDS BELOW 12,000 FEET WITH NO
SIGNIFICANT WEATHER AND/OR OBSTRUCTIONS TO VISIBILITY. N/A MEANS
CURRENT SKY AND/OR WEATHER CONDITIONS ARE NOT AVAILABLE.

MNZ060>063-068>070-271400-
   Twin Cities Metro

CITY           SKY/WX    TMP DP  RH WIND       PRES   REMARKS
TWIN CITIES    PTSUNNY   62  56  80 NE7       30.20S
ST PAUL        MOSUNNY   62  56  80 E3        30.21R
CRYSTAL        SUNNY     62  54  74 E5        30.20R
BLAINE         MOSUNNY   61  57  88 CALM      30.21R
LAKEVILLE      PTSUNNY   61  55  82 E6        30.21R
EDEN PRAIRIE   MOSUNNY   62  56  80 NE8       30.19S
SOUTH ST PAUL  PTSUNNY   62  54  76 E3        30.20S
LAKE ELMO      FAIR      61  55  82 E3        30.22R
$$
MNZ001>005-007-008-013>017-022>024-027-028-271400-
   Northwest Minnesota

CITY           SKY/WX    TMP DP  RH WIND       PRES   REMARKS
BEMIDJI        SUNNY     49  49  99 CALM      30.20R
HALLOCK        SUNNY     46  46 100 S6        30.16S FOG
ROSEAU         HAZE      48  43  81 CALM      30.17S VSB<1/4
WARROAD        FOG       48  45  87 SW3       30.18R VSB 1/4
THIEF RVR FALL SUNNY     52  52 100 S5        30.19R
CROOKSTON      FOG       52  50  93 S5        30.20R VSB<1/4
FOSSTON        FOG       48  48 100 S3        30.20S VSB 1/2
DETROIT LAKES  SUNNY     55  55 100 CALM      30.20F
MOORHEAD       CLOUDY    55  55 100 CALM      30.20R
PARK RAPIDS    FOG       53  53 100 CALM      30.20S VSB 1/4
MAHNOMEN       FOG       51  51 100 CALM      30.19S VSB 1/4
$$
MNZ006-009>011-018-025>026-271400-
   North Central Minnesota

CITY           SKY/WX    TMP DP  RH WIND       PRES   REMARKS
BAUDETTE       SUNNY     50  48  93 S5        30.18S
FLAG ISLAND    SUNNY     57  54  88 CALM      30.15S
INTL FALLS     MOSUNNY   46  44  93 CALM      30.19S
WASKISH        SUNNY     52  52 100 CALM      30.19R
BIG FORK       MOSUNNY   48  46  93 CALM      30.21R
LONGVILLE      SUNNY     48  46  93 CALM      30.20R
GRAND RAPIDS   SUNNY     48  46  93 S5        30.21R
CRANE LAKE     SUNNY     39  39 100 CALM      30.22S
ORR            SUNNY     45  41  87 CALM      30.18S
COOK           SUNNY     43  43 100 CALM      30.21S
WALKER         FAIR      51  51  99 CALM      30.21R
$$
MNZ012-019>021-037-271400-
   Northeast Minnesota

CITY           SKY/WX    TMP DP  RH WIND       PRES   REMARKS
DULUTH         MOSUNNY   56  49  77 CALM      30.20F
ELY            SUNNY     46  46 100 CALM      30.20S
HIBBING        SUNNY     48  45  89 CALM      30.21S
EVELETH        SUNNY     48  46  93 CALM      30.22R
DULUTH HARBOR  SUNNY     57  54  88 CALM      30.21S
TWO HARBORS    SUNNY     50  45  81 CALM      30.19S
SILVER BAY     SUNNY     48  48 100 CALM      30.19S
GRAND MARAIS     N/A     59  50  72 N6        30.18S
G MARAIS ARPRT SUNNY     52  46  82 NW3       30.20S
$$
MNZ029>031-032-039>041-046>048-054>057-064-271400-
   West Central Minnesota

CITY           SKY/WX    TMP DP  RH WIND       PRES   REMARKS
FERGUS FALLS   CLOUDY    61  57  88 CALM      30.19S
WHEATON        PTSUNNY   54  54 100 SE3       30.21S FOG
MORRIS         PTSUNNY   61  57  88 E3        30.19S
ALEXANDRIA     PTSUNNY   57  56  96 SE6       30.22R
ELBOW LAKE     FAIR      58  56  94 SE3       30.19S
WADENA         SUNNY     57  55  94 CALM      30.20R
GLENWOOD       MOSUNNY   57  55  94 E5        30.21S
APPLETON       SUNNY     59  55  88 CALM      30.18F
BENSON         SUNNY     57  55  94 E6        30.20R
ORTONVILLE     SUNNY     59  55  88 E3        30.18F
MADISON        SUNNY     57  55  94 CALM      30.19R
WILLMAR        FAIR      63  57  82 E7        30.20F
$$
MNZ033>034-036-042>043-049>051-058-059-271400-
   Central Minnesota

CITY           SKY/WX    TMP DP  RH WIND       PRES   REMARKS
ST CLOUD       PTSUNNY   59  55  87 SE3       30.21R
SAUK CENTRE    FAIR      57  56  95 E5        30.21S
PAYNESVILLE    PTSUNNY   56  53  90 NE5       30.21S
AITKIN         SUNNY     57  52  82 CALM      30.19S
PINE RIVER     MOSUNNY   54  54 100 CALM      30.23S FOG
BRAINERD       SUNNY     57  55  93 CALM      30.21S
STAPLES        MOSUNNY   57  55  94 CALM      30.21R
LONG PRAIRIE   FAIR      55  54  94 CALM      30.21S
LITTLE FALLS   CLOUDY    57  55  94 CALM      30.21S
LITCHFIELD     MOSUNNY   61  61 100 E6        30.20S
BUFFALO        SUNNY     59  53  82 E3        30.22R
MAPLE LAKE     SUNNY     60  56  88 E5        30.22R
$$
MNZ037-044-045-052-053-271400-
   East Central Minnesota

CITY           SKY/WX    TMP DP  RH WIND       PRES   REMARKS
PRINCETON      MOSUNNY   57  55  94 CALM      30.21S
MORA           CLOUDY    55  54  94 S3        30.23R
CAMBRIDGE      MOSUNNY   61  52  72 CALM      30.20R
RUSH CITY      CLOUDY    57  55  94 CALM      30.22R
MOOSE LAKE     SUNNY     54  52  94 CALM      30.19S
HINCKLEY       FAIR      55  54  94 CALM      30.21S
CLOQUET        SUNNY     54  52  94 CALM      30.21S
MCGREGOR         N/A     52  52 100 CALM      30.21S VSB 3/4
$$
MNZ071>073-080-081-089-090-097-098-271400-
   Southwest Minnesota

CITY           SKY/WX    TMP DP  RH WIND       PRES   REMARKS
MONTEVIDEO     SUNNY     61  61 100 CALM      30.20R
GRANITE FALLS  SUNNY     58  58 100 CALM      30.21R
CANBY          MOSUNNY   55  55  98 CALM      30.20R
MARSHALL         N/A     55  54  94 CALM      30.17S VSB 1/4
REDWOOD FALLS  SUNNY     60  56  86 E6        30.18S
OLIVIA         SUNNY     59  55  88 NE3       30.19R
PIPESTONE      MOSUNNY   59  55  88 E3        30.18R
WINDOM         MOSUNNY   61  57  88 E3        30.20R
WORTHINGTON    PTSUNNY   57  55  94 CALM      30.21R
JACKSON        CLOUDY    61  55  82 E3        30.20R
TRACY          SUNNY     58  58  98 CALM      30.19R
SLAYTON        MOSUNNY   57  57  98 CALM      30.20R
$$
MNZ065>067-074>077-082>085-091>093-271400-
   South Central Minnesota

CITY           SKY/WX    TMP DP  RH WIND       PRES   REMARKS
MANKATO        SUNNY     63  54  72 E7        30.19R
NEW ULM        SUNNY     61  59  94 E8        30.19R
ST JAMES       SUNNY     64  59  82 CALM      30.20R
FAIRMONT       CLOUDY    57  55  94 SE3       30.19R
GLENCOE        SUNNY     62  56  81 E5        30.19R
FARIBAULT      MOSUNNY   63  55  77 CALM      30.20R
OWATONNA       SUNNY     63  55  77 NE7       30.20R
WASECA         SUNNY     61  52  72 NE3       30.21R
ALBERT LEA     PTSUNNY   63  57  82 E5        30.19S
$$
MNZ078>079-086>088-094>096-271400-
   Southeast Minnesota

CITY           SKY/WX    TMP DP  RH WIND       PRES   REMARKS
ROCHESTER      PTSUNNY   62  56  80 SE6       30.21R
RED WING       MOSUNNY   63  55  77 NE6       30.18S
STANTON        PTSUNNY   62  57  86 NE3       30.19R
DODGE CENTER   MOSUNNY   63  57  82 NE5       30.20R
WINONA         PTSUNNY   63  59  88 CALM      30.19R
AUSTIN         CLOUDY    59  57  94 CALM      30.19S
PRESTON        CLOUDY    60  60  99 CALM      30.21R
$$
ABBREVIATIONS USED IN REMARKS
   TC - TEMPERATURES IN CELSIUS
  WCI - WIND CHILL INDEX
   HX - HEAT INDEX
  VSB - VISIBILITY
$$



USA.gov is the U.S. government's official web portal to all federal, state and local government web resources and services.